TimeCDT,TemperatureF,Dew PointF,Humidity,Sea Level PressureIn,VisibilityMPH,Wind Direction,Wind SpeedMPH,Gust SpeedMPH,PrecipitationIn,Events,Conditions,WindDirDegrees,DateUTC
12:15 AM,30.7,22.6,72,30.20,10.0,NW,5.8,-,N/A,,Scattered Clouds,320,2013-04-24 05:15:00
12:35 AM,30.0,24.3,79,30.20,10.0,NW,5.8,-,N/A,,Clear,310,2013-04-24 05:35:00
12:55 AM,29.3,23.9,80,30.21,10.0,WNW,5.8,-,N/A,,Clear,300,2013-04-24 05:55:00
1:15 AM,29.1,23.7,80,30.21,10.0,NW,6.9,-,N/A,,Clear,310,2013-04-24 06:15:00
1:35 AM,28.6,23.5,81,30.20,10.0,NW,5.8,-,N/A,,Clear,320,2013-04-24 06:35:00
1:55 AM,28.0,23.2,82,30.19,10.0,NW,5.8,-,N/A,,Clear,320,2013-04-24 06:55:00
2:15 AM,27.5,22.8,83,30.19,10.0,NW,6.9,-,N/A,,Clear,310,2013-04-24 07:15:00
2:35 AM,27.5,23.0,83,30.19,10.0,WNW,6.9,-,N/A,,Clear,300,2013-04-24 07:35:00
2:55 AM,27.5,23.0,83,30.18,10.0,WNW,8.1,-,N/A,,Clear,300,2013-04-24 07:55:00
3:15 AM,27.0,22.6,84,30.18,10.0,WNW,6.9,-,N/A,,Clear,290,2013-04-24 08:15:00
3:35 AM,27.3,22.1,81,30.18,10.0,West,6.9,-,N/A,,Clear,280,2013-04-24 08:35:00
3:55 AM,27.3,22.1,81,30.18,10.0,West,8.1,-,N/A,,Clear,280,2013-04-24 08:55:00
4:15 AM,26.8,21.9,82,30.18,10.0,West,6.9,-,N/A,,Clear,280,2013-04-24 09:15:00
4:35 AM,27.0,21.9,81,30.18,10.0,West,9.2,-,N/A,,Clear,280,2013-04-24 09:35:00
5:15 AM,26.6,22.1,83,30.18,10.0,West,9.2,-,N/A,,Clear,270,2013-04-24 10:15:00
5:35 AM,26.6,21.7,82,30.18,10.0,West,10.4,-,N/A,,Clear,270,2013-04-24 10:35:00
5:55 AM,26.6,21.9,82,30.19,10.0,West,10.4,-,N/A,,Clear,270,2013-04-24 10:55:00
6:15 AM,26.6,21.9,82,30.19,10.0,West,10.4,-,N/A,,Clear,270,2013-04-24 11:15:00
6:35 AM,26.4,21.9,83,30.19,10.0,West,9.2,-,N/A,,Clear,260,2013-04-24 11:35:00
6:55 AM,26.6,22.1,83,30.19,10.0,West,9.2,-,N/A,,Clear,270,2013-04-24 11:55:00
7:15 AM,27.5,22.6,82,30.20,10.0,West,10.4,-,N/A,,Clear,260,2013-04-24 12:15:00
7:35 AM,28.9,23.5,80,30.20,10.0,West,9.2,-,N/A,,Clear,270,2013-04-24 12:35:00
7:55 AM,30.2,24.1,78,30.20,10.0,West,10.4,-,N/A,,Clear,270,2013-04-24 12:55:00
8:15 AM,32.0,25.0,75,30.20,10.0,West,11.5,-,N/A,,Clear,270,2013-04-24 13:15:00
8:35 AM,33.1,25.5,74,30.21,10.0,West,11.5,-,N/A,,Clear,270,2013-04-24 13:35:00
8:55 AM,34.7,26.1,71,30.22,10.0,West,10.4,-,N/A,,Clear,260,2013-04-24 13:55:00
9:15 AM,36.0,26.1,67,30.21,10.0,West,9.2,-,N/A,,Clear,270,2013-04-24 14:15:00
9:35 AM,37.6,26.2,64,30.21,10.0,West,9.2,-,N/A,,Clear,260,2013-04-24 14:35:00
9:55 AM,39.4,26.6,60,30.21,10.0,West,8.1,-,N/A,,Clear,270,2013-04-24 14:55:00
10:15 AM,40.8,26.1,56,30.20,10.0,West,6.9,-,N/A,,Clear,260,2013-04-24 15:15:00
10:35 AM,42.4,23.5,47,30.19,10.0,WNW,9.2,-,N/A,,Clear,290,2013-04-24 15:35:00
10:55 AM,42.4,25.2,50,30.20,10.0,WSW,10.4,-,N/A,,Clear,250,2013-04-24 15:55:00
11:15 AM,43.5,24.6,47,30.20,10.0,WSW,12.7,17.3,N/A,,Clear,250,2013-04-24 16:15:00
11:35 AM,44.8,25.0,46,30.19,10.0,West,11.5,16.1,N/A,,Clear,260,2013-04-24 16:35:00
11:55 AM,46.2,26.2,46,30.19,10.0,West,11.5,-,N/A,,Clear,280,2013-04-24 16:55:00
12:15 PM,46.6,24.6,42,30.18,10.0,WSW,6.9,11.5,N/A,,Clear,250,2013-04-24 17:15:00
12:35 PM,48.0,25.0,41,30.18,10.0,West,11.5,18.4,N/A,,Clear,280,2013-04-24 17:35:00
12:55 PM,49.8,25.2,38,30.17,10.0,West,13.8,20.7,N/A,,Clear,260,2013-04-24 17:55:00
1:15 PM,50.5,24.6,36,30.16,10.0,SW,15.0,19.6,N/A,,Clear,230,2013-04-24 18:15:00
1:35 PM,51.6,26.2,37,30.16,10.0,WSW,16.1,24.2,N/A,,Clear,240,2013-04-24 18:35:00
1:55 PM,52.3,25.2,35,30.15,10.0,SW,12.7,21.9,N/A,,Clear,230,2013-04-24 18:55:00
2:15 PM,53.2,25.0,33,30.14,10.0,SW,19.6,23.0,N/A,,Clear,230,2013-04-24 19:15:00
2:35 PM,54.3,24.6,32,30.14,10.0,SW,17.3,26.5,N/A,,Clear,230,2013-04-24 19:35:00
2:55 PM,55.0,23.7,30,30.13,10.0,WSW,18.4,25.3,N/A,,Clear,240,2013-04-24 19:55:00
3:15 PM,56.1,23.7,29,30.13,10.0,WSW,17.3,28.8,N/A,,Clear,250,2013-04-24 20:15:00
3:35 PM,56.5,22.6,27,30.11,10.0,WSW,19.6,26.5,N/A,,Clear,250,2013-04-24 20:35:00
3:55 PM,57.4,22.5,26,30.11,10.0,West,16.1,25.3,N/A,,Clear,260,2013-04-24 20:55:00
4:15 PM,58.1,21.6,24,30.10,10.0,WSW,20.7,27.6,N/A,,Clear,250,2013-04-24 21:15:00
4:35 PM,58.5,23.9,26,30.09,10.0,WSW,17.3,26.5,N/A,,Clear,240,2013-04-24 21:35:00
4:55 PM,59.0,24.4,27,30.09,10.0,WSW,18.4,26.5,N/A,,Clear,250,2013-04-24 21:55:00
5:15 PM,58.1,25.5,29,30.08,10.0,WSW,19.6,27.6,N/A,,Scattered Clouds,240,2013-04-24 22:15:00
5:35 PM,58.5,27.3,30,30.07,10.0,SW,17.3,25.3,N/A,,Scattered Clouds,230,2013-04-24 22:35:00
5:55 PM,58.8,29.3,33,30.06,10.0,SW,19.6,23.0,N/A,,Clear,220,2013-04-24 22:55:00
6:15 PM,56.5,29.5,36,30.05,10.0,SW,19.6,25.3,N/A,,Scattered Clouds,230,2013-04-24 23:15:00
6:35 PM,55.9,31.1,39,30.05,10.0,SW,15.0,-,N/A,,Mostly Cloudy,220,2013-04-24 23:35:00
6:55 PM,55.2,32.0,41,30.06,10.0,SW,10.4,-,N/A,,Overcast,220,2013-04-24 23:55:00
7:15 PM,55.0,26.6,33,30.09,10.0,WNW,21.9,39.1,N/A,,Overcast,300,2013-04-25 00:15:00
7:35 PM,54.3,25.9,33,30.09,10.0,NW,23.0,31.1,N/A,,Overcast,310,2013-04-25 00:35:00
7:55 PM,53.2,28.9,39,30.09,10.0,NW,13.8,23.0,N/A,,Overcast,320,2013-04-25 00:55:00
8:15 PM,50.5,32.0,49,30.12,10.0,NW,19.6,25.3,N/A,,Scattered Clouds,310,2013-04-25 01:15:00
8:35 PM,49.3,32.9,53,30.13,10.0,NNW,12.7,-,N/A,,Scattered Clouds,330,2013-04-25 01:35:00
8:55 PM,48.4,33.8,57,30.15,10.0,NW,12.7,-,N/A,,Mostly Cloudy,320,2013-04-25 01:55:00
10:15 PM,42.8,33.8,70,30.18,10.0,NW,6.9,-,N/A,,Clear,310,2013-04-25 03:15:00
10:35 PM,43.0,33.1,68,30.19,10.0,WNW,9.2,-,N/A,,Clear,300,2013-04-25 03:35:00
10:55 PM,42.4,32.4,68,30.19,10.0,NW,5.8,-,N/A,,Clear,310,2013-04-25 03:55:00
11:15 PM,41.0,32.0,70,30.20,10.0,NW,8.1,-,N/A,,Clear,320,2013-04-25 04:15:00
11:35 PM,41.0,32.0,70,30.21,10.0,NW,9.2,-,N/A,,Clear,320,2013-04-25 04:35:00
11:55 PM,40.1,31.8,72,30.22,10.0,WNW,5.8,-,N/A,,Clear,290,2013-04-25 04:55:00